Theta_e
299 299 300 300 301 299 297 295 291 284 286 289 290 294 295 294 295 293 292 297 296 295 293 293 293 293 291 291 291 292 293 293 293 294 294 295 296 296
299 298 298 299 300 298 297 295 293 290 287 290 290 292 294 295 295 294 293 297 295 295 294 294 294 292 291 290 290 290 291 291 291 292 292 293 293 294
298 298 298 299 297 297 296 295 292 291 288 289 291 292 291 291 292 292 294 290 290 295 294 294 293 292 290 290 289 289 289 289 290 290 291 291 292 293
297 297 298 300 298 296 295 293 292 291 289 287 290 290 290 290 290 290 292 293 289 293 294 293 292 291 291 290 289 289 288 288 289 289 289 290 290 291
299 298 298 298 295 294 294 292 291 293 290 288 288 289 288 289 288 289 289 289 291 294 293 292 292 292 291 291 290 290 290 289 289 288 288 288 288 289
299 299 298 297 294 293 293 291 292 289 288 287 286 286 286 288 287 286 285 285 287 290 291 289 290 292 292 291 291 290 290 290 289 289 289 288 288 288
297 298 297 297 296 294 294 290 290 288 288 287 286 286 285 283 283 285 285 285 284 285 284 283 283 285 285 289 290 292 291 291 290 289 289 288 288 288
293 294 294 294 294 292 292 291 292 290 289 289 287 285 285 284 284 282 282 282 280 284 284 280 283 281 283 284 289 288 288 288 288 288 288 288 288 289
290 291 292 294 292 293 291 290 289 290 287 289 288 287 286 286 285 283 282 282 282 283 281 279 280 279 283 287 289 289 289 289 289 288 288 288 288 288
290 290 289 288 288 287 286 285 285 287 289 289 287 287 288 289 289 286 283 284 282 282 282 276 280 280 282 283 289 289 289 289 289 289 289 289 289 288
288 287 286 285 287 287 283 282 283 284 288 290 290 290 290 290 290 286 283 281 276 279 280 280 280 279 280 280 281 288 288 288 288 289 289 289 289 289
282 283 284 284 285 285 282 280 279 280 283 284 284 285 288 288 288 286 284 281 279 276 280 279 278 278 275 279 280 281 281 286 288 288 288 289 289 286
279 279 281 284 284 283 283 280 280 281 281 282 282 282 283 286 285 284 285 284 281 279 281 278 277 278 276 276 277 279 280 280 279 282 287 288 289 288
278 279 280 282 282 282 282 283 284 283 282 282 282 282 283 284 286 285 284 284 284 282 282 281 276 278 276 274 275 277 278 279 281 280 281 285 288 289
279 279 280 280 281 281 284 284 284 283 283 282 281 281 283 285 286 285 285 284 284 283 284 282 280 280 277 275 276 277 277 279 280 278 282 282 281 281
278 277 277 279 278 279 279 281 281 282 281 283 283 283 284 285 284 285 283 281 279 278 283 282 281 281 278 279 277 277 278 274 279 277 283 283 281 283
274 275 276 277 276 276 276 277 278 279 279 279 284 284 284 285 284 284 281 281 280 278 278 279 282 282 282 280 276 278 279 278 280 280 280 279 280 281
274 273 272 272 273 274 274 274 275 275 276 278 279 284 283 284 284 284 283 282 280 280 279 279 279 280 280 280 282 279 278 279 275 279 279 277 278 279
273 273 269 270 272 273 273 273 273 274 275 276 277 279 284 283 282 281 282 281 280 280 279 279 279 278 276 267 278 284 276 277 276 276 279 276 277 279
273 272 271 271 272 272 272 272 272 273 272 273 275 277 282 280 279 280 282 280 280 280 279 279 279 279 276 272 271 273 283 275 275 275 275 277 279 283
273 272 270 271 271 271 271 271 271 271 271 271 272 275 276 278 278 277 281 281 281 281 278 278 279 279 279 276 267 269 273 284 281 276 276 273 275 277
270 270 270 270 270 270 270 270 270 269 270 270 270 273 273 273 274 279 281 281 280 278 279 279 279 279 277 277 273 268 275 280 282 283 282 279 272 269
267 269 269 268 269 269 269 268 268 268 269 269 269 270 270 270 271 272 281 280 280 278 278 277 278 279 278 278 275 273 273 272 276 275 274 282 281 281
Wind_Speed
3 3 3 2 6 4 2 2 2 3 4 5 4 6 5 4 8 7 7 11 13 13 15 16 15 15 15 16 18 21 22 22 22 23 23 24 25 24
2 3 4 6 6 4 3 3 4 4 7 3 4 4 5 5 6 7 6 8 10 12 13 13 15 14 15 17 19 21 22 22 23 23 23 23 24 25
5 5 9 9 4 3 3 3 3 3 5 5 4 5 4 5 5 5 6 6 6 10 10 12 13 15 17 16 18 19 20 21 21 21 21 21 22 22
9 10 10 7 7 6 5 6 5 5 4 11 8 6 8 7 7 6 5 6 5 7 8 11 14 18 16 15 18 19 20 20 20 20 21 21 21 22
9 8 10 6 5 4 4 5 4 5 5 5 8 4 4 3 5 7 6 5 4 9 12 14 14 15 16 18 20 21 21 20 18 18 19 19 20 20
7 8 6 6 6 6 6 7 6 5 5 5 5 6 4 6 4 5 4 1 3 4 5 5 6 11 16 20 20 23 23 21 17 18 19 17 17 19
7 7 7 8 10 9 7 6 6 7 8 9 11 8 6 4 4 2 2 4 4 3 3 3 3 3 2 8 10 14 15 17 16 14 15 15 16 18
6 6 7 9 8 12 15 17 15 13 14 11 10 11 10 7 5 3 2 2 4 4 4 3 1 2 4 4 11 8 8 10 13 13 11 13 15 15
6 6 7 8 8 8 10 11 12 17 12 15 15 13 14 10 5 5 5 4 4 5 1 3 2 4 5 7 8 6 10 13 13 13 12 14 15 16
6 8 8 8 9 11 13 12 12 11 10 8 12 15 14 13 12 9 7 5 4 4 3 4 3 5 4 4 7 10 8 7 12 12 14 16 17 17
7 7 10 10 13 17 12 14 16 14 13 16 10 13 19 21 17 4 3 3 3 4 3 3 5 4 3 3 4 8 6 10 12 13 16 18 18 18
6 8 11 10 12 16 13 13 16 16 14 13 11 13 13 11 19 12 8 7 4 2 5 5 3 1 3 3 1 3 4 9 9 10 13 15 16 6
5 6 6 16 20 23 24 15 17 18 18 14 13 10 9 8 8 9 8 8 7 8 4 3 2 0 2 3 1 3 4 5 3 5 12 14 16 12
7 7 9 22 26 25 21 23 25 19 11 10 10 10 10 9 8 8 10 8 8 9 5 5 3 3 2 2 4 2 3 5 5 4 4 9 13 13
6 12 23 24 24 17 17 21 15 9 10 9 9 9 9 8 7 6 6 11 10 7 7 6 4 4 3 3 5 4 6 5 5 3 3 3 4 3
9 10 12 16 9 10 12 12 10 10 11 11 9 8 7 6 7 6 6 4 4 3 6 6 6 5 3 5 4 6 5 3 5 3 3 5 4 4
9 7 8 5 8 9 9 10 11 11 11 12 9 8 7 7 6 5 4 3 5 3 3 2 6 8 6 6 4 7 7 4 4 3 3 3 4 4
6 7 4 4 6 8 9 10 10 13 11 13 14 8 5 7 7 5 5 5 6 5 5 3 2 2 5 7 14 9 5 3 3 3 3 2 4 4
5 4 3 3 5 7 8 9 11 11 14 11 11 15 4 1 1 2 5 6 7 6 4 3 3 3 4 3 3 3 2 2 2 3 3 2 3 7
3 4 4 5 6 8 8 9 10 10 10 12 12 11 11 2 2 3 5 6 6 5 5 4 4 5 5 4 3 3 7 3 2 3 3 3 5 13
5 5 4 7 6 7 8 8 9 10 9 10 12 11 11 12 3 3 5 9 7 6 5 6 4 5 4 3 4 4 4 13 8 3 2 2 3 2
3 6 6 6 7 8 7 8 9 9 10 9 10 11 10 11 11 8 5 4 4 3 4 2 4 3 2 3 3 4 2 0 7 13 11 7 3 2
4 5 5 5 7 7 8 7 9 9 9 10 8 10 10 11 12 11 8 4 4 5 5 2 2 3 3 3 3 2 3 3 2 1 3 12 14 14
Wind_Direction
82 223 223 251 253 256 249 224 207 266 269 281 290 287 282 196 191 186 196 207 179 190 206 229 266 277 283 290 293 292 293 291 292 289 291 291 290 289
193 233 260 249 243 242 223 226 226 230 271 236 260 275 279 273 257 209 193 195 198 214 227 243 252 257 266 273 282 290 288 289 289 287 287 285 285 284
236 239 248 248 238 244 250 241 252 249 271 279 260 259 273 272 277 211 207 203 211 219 225 232 226 230 242 256 272 281 284 285 285 284 284 285 286 286
227 234 241 243 234 225 229 235 237 242 246 274 267 265 253 256 238 236 235 232 204 221 227 220 213 224 230 242 257 265 271 276 280 283 284 286 287 287
231 234 246 241 252 247 244 246 244 257 252 263 278 268 263 263 273 258 236 220 218 239 238 235 237 240 238 239 248 257 260 263 267 275 277 278 279 281
247 241 248 247 244 254 258 252 259 250 253 265 271 276 270 272 247 249 275 328 310 298 275 287 264 253 245 239 247 253 255 258 260 264 265 265 266 271
254 251 246 239 242 240 255 249 249 255 258 261 264 268 270 282 280 284 235 230 265 244 247 247 256 264 279 262 270 270 264 253 256 262 273 279 280 277
315 307 312 312 297 277 260 252 247 251 255 253 266 262 263 262 262 246 246 255 266 256 254 262 212 287 283 278 272 227 210 216 231 247 263 276 277 277
303 298 295 296 308 312 324 320 281 270 262 264 261 259 263 258 261 255 220 206 232 280 332 268 263 264 262 271 281 287 236 242 235 235 254 268 272 272
334 336 335 335 343 350 336 322 312 303 289 260 252 259 256 256 249 241 209 198 244 244 211 248 255 257 250 254 271 291 295 329 269 237 260 269 270 273
334 343 344 335 335 350 337 322 313 303 300 294 300 299 268 248 245 172 170 181 237 231 229 236 263 251 236 253 272 293 257 263 258 255 265 272 268 270
343 321 309 307 324 335 324 314 303 298 301 301 301 293 277 268 265 220 186 219 222 290 221 241 261 24 309 243 214 307 299 296 305 288 296 289 282 276
314 318 318 322 321 315 305 294 281 287 287 284 282 282 276 261 216 211 205 205 224 242 238 164 200 94 219 290 270 301 288 279 271 277 282 287 286 282
327 318 314 316 311 308 306 292 286 279 270 270 269 268 274 270 244 204 199 200 209 216 227 209 194 173 198 265 284 281 282 281 273 257 256 273 281 287
319 319 316 312 308 305 312 324 321 304 270 253 256 258 256 254 222 194 216 207 211 216 226 218 201 203 176 222 267 271 289 280 266 258 272 265 263 266
327 311 298 293 291 322 328 329 328 324 334 283 251 256 263 243 204 181 209 171 165 201 215 214 213 199 215 231 233 270 264 259 292 267 304 272 276 265
311 301 306 325 328 329 328 327 332 329 327 334 285 260 255 236 191 196 188 172 198 194 227 229 228 220 210 220 245 253 263 266 277 277 293 289 283 285
306 297 306 322 323 324 326 328 330 330 332 322 326 284 247 231 194 195 176 188 195 202 216 203 229 194 238 243 225 248 259 242 264 295 290 286 291 297
271 300 302 312 320 323 330 329 325 328 329 330 317 320 286 258 166 162 193 193 205 202 205 193 223 220 244 239 266 165 138 287 305 312 265 257 274 298
323 317 324 330 325 330 332 326 321 323 330 327 329 324 306 231 237 221 217 201 201 193 197 213 222 227 213 208 183 262 201 208 207 272 288 292 267 276
319 327 328 324 326 327 322 319 321 322 327 328 326 325 332 328 228 228 233 208 194 180 187 218 220 135 135 92 32 298 272 218 215 206 274 298 286 300
334 330 323 322 321 319 317 319 320 325 325 326 325 326 335 333 335 309 234 195 169 157 182 207 159 175 142 177 223 251 273 137 244 237 233 201 183 273
325 317 319 324 320 318 317 324 322 317 322 315 324 324 332 326 328 327 274 150 169 178 180 194 223 168 186 193 224 246 270 259 249 255 266 221 237 248